Wind_Speed
53 57 58 58 58 59 60 63 64 63 64 65 67 70 74 78 82 84 90 92 103 90 77 71 62 53 47 44 44 45 45 47 50 45 45 47 47 45 42 42 41 41 42
56 58 58 59 59 60 63 63 64 64 64 66 68 72 76 80 87 89 95 99 93 76 69 60 51 45 42 42 44 43 44 47 51 47 43 45 42 41 41 43 45 46 45
58 59 59 58 58 61 64 64 64 64 66 68 70 74 78 82 89 95 102 95 77 68 59 49 43 40 40 42 42 44 46 48 46 46 44 41 37 39 43 46 48 47 45
59 59 58 58 60 62 64 64 65 66 70 72 74 75 78 86 93 98 102 83 69 60 49 43 40 39 39 40 43 45 46 45 45 46 41 36 37 42 46 48 47 45 43
58 57 57 58 59 62 64 64 66 69 73 75 78 76 84 91 93 98 89 75 63 51 44 41 40 39 39 41 44 44 46 45 44 43 37 35 41 45 47 48 46 43 38
56 56 58 58 60 64 65 66 68 72 75 79 78 82 89 96 93 87 79 66 53 45 41 39 39 39 39 40 40 42 43 43 42 38 35 37 43 45 46 44 42 38 32
56 58 59 61 62 66 68 69 71 75 76 78 79 84 92 96 84 80 69 57 47 42 40 37 36 38 39 41 41 42 41 41 37 33 34 40 42 42 41 38 37 34 29
58 59 57 57 64 70 74 75 76 78 76 77 82 87 91 92 79 68 59 48 43 39 36 35 36 38 39 40 39 40 39 36 33 31 35 39 41 40 36 35 33 30 25
56 59 60 63 70 75 76 78 80 75 74 79 86 87 86 84 68 59 49 42 39 37 36 36 35 39 39 39 39 36 35 32 29 29 34 36 38 35 31 30 28 20 16
59 65 69 70 74 83 80 79 78 80 78 82 78 82 75 70 60 51 44 41 39 36 36 35 34 35 37 38 36 33 30 29 26 28 32 34 35 32 28 26 22 12 11
68 72 76 81 83 85 81 81 77 79 80 81 78 68 64 60 55 44 41 39 37 34 33 34 34 34 35 36 33 30 27 26 24 25 30 31 33 30 25 22 17 12 12
63 78 82 87 80 80 78 75 79 80 83 77 69 64 60 52 47 41 39 37 34 31 32 32 32 33 33 32 30 27 26 25 22 23 27 29 31 28 23 19 14 10 10
72 77 82 81 78 67 71 72 75 73 71 70 65 59 50 46 41 37 36 33 30 30 30 30 30 31 30 28 26 26 25 24 22 22 24 26 27 27 23 17 13 9 8
80 79 82 72 64 72 72 74 73 68 67 62 57 51 46 41 37 35 32 29 28 29 29 29 29 29 28 26 25 24 24 22 21 20 21 23 24 26 21 18 11 8 5
79 81 78 81 74 75 74 68 69 61 57 55 51 46 41 36 33 33 30 28 29 29 28 28 28 28 28 26 24 23 22 22 21 19 19 20 21 22 22 17 13 8 4
80 82 79 79 78 71 69 62 61 53 52 50 49 43 37 34 31 29 29 29 30 29 29 28 27 26 27 26 25 23 23 21 20 19 18 17 19 19 19 18 12 9 5
79 84 79 73 68 66 61 55 51 50 49 47 45 38 33 31 29 28 29 29 30 29 28 27 26 25 25 26 25 24 23 22 21 19 18 17 16 17 16 16 13 8 5
78 70 66 65 64 60 56 53 51 49 49 45 42 35 32 30 29 28 29 30 29 27 26 26 25 25 24 25 25 26 26 25 22 21 18 17 16 15 14 13 13 10 6
61 60 66 69 67 61 55 51 50 50 48 44 40 34 30 28 27 27 27 26 26 26 26 26 25 25 24 24 24 25 26 28 28 24 20 18 17 16 14 12 11 9 6
62 62 68 70 63 58 55 52 49 49 46 43 38 33 30 26 26 25 25 26 26 27 26 26 26 25 24 23 23 23 23 26 28 29 25 20 18 17 16 14 11 9 8
63 68 72 69 61 57 52 50 48 46 43 41 38 33 31 30 29 29 29 29 29 29 29 29 27 26 26 25 23 22 22 24 26 28 29 25 18 17 18 17 16 12 11
69 73 73 66 60 57 54 50 47 45 42 40 37 34 32 32 32 32 32 31 30 30 30 30 29 27 25 25 24 22 22 22 23 25 26 27 23 18 16 19 19 18 16
75 74 68 62 59 56 53 50 46 43 40 38 36 33 33 33 32 32 32 31 31 32 31 30 30 30 28 25 25 24 22 21 20 21 24 24 26 21 17 17 20 21 21
77 70 63 57 52 49 47 45 43 41 39 37 36 33 31 32 33 32 32 31 30 30 29 29 28 29 29 27 25 24 23 21 20 20 21 22 23 24 20 16 17 19 22
73 65 62 58 55 51 48 44 42 40 38 37 35 33 32 31 33 33 32 31 29 27 26 26 26 26 28 28 26 25 23 23 21 20 20 20 20 21 22 18 16 15 18
67 65 61 58 55 52 49 46 42 40 38 37 35 33 32 31 32 34 33 32 31 29 27 27 27 27 27 28 28 26 24 23 22 21 21 20 21 20 20 20 18 15 15
Wind_Direction
299 299 301 302 307 308 308 310 310 309 308 309 312 315 320 321 321 321 321 321 323 316 310 308 305 302 300 297 297 296 295 294 296 301 298 297 295 291 287 286 284 282 277
300 302 304 305 305 308 309 310 309 308 309 312 315 319 321 324 323 323 325 325 321 313 309 306 303 300 298 296 298 297 296 296 300 301 301 297 293 290 290 290 289 285 281
302 304 305 304 306 308 309 309 309 309 310 313 315 318 323 325 327 327 328 323 317 312 309 304 301 299 297 297 299 298 298 300 301 302 302 297 293 294 296 296 293 289 283
304 305 305 307 308 309 310 310 309 309 310 312 313 319 324 327 331 328 328 319 317 312 307 302 300 299 299 299 299 300 301 303 304 303 303 298 299 302 301 299 295 291 284
305 305 306 307 308 309 310 310 309 309 310 312 312 319 325 328 330 331 326 320 315 311 306 303 300 300 301 302 302 303 304 306 306 305 303 302 306 305 305 301 299 293 284
304 304 305 308 310 311 310 309 310 310 311 311 312 316 325 332 330 329 323 318 314 310 306 303 302 302 302 303 303 305 306 308 307 305 303 306 307 309 306 304 300 295 282
304 305 308 308 308 310 310 310 310 310 309 309 311 318 324 332 329 327 321 316 313 309 306 304 303 302 305 306 308 309 309 310 308 304 307 309 310 311 311 307 304 295 282
305 307 307 304 307 308 309 308 308 307 306 308 313 324 332 332 327 324 319 315 313 309 307 306 305 305 308 307 310 311 312 310 308 307 310 316 318 317 316 314 306 299 282
307 309 308 306 302 301 304 306 306 303 304 311 315 328 332 331 325 322 316 314 313 311 309 307 308 307 309 311 315 314 313 311 307 308 314 320 323 323 322 319 313 303 284
304 307 308 303 298 296 295 301 301 300 305 311 328 330 328 326 324 318 314 312 312 310 308 307 308 308 312 314 315 315 314 313 307 310 321 325 329 330 328 323 318 294 298
305 302 304 304 300 294 293 297 299 303 313 323 330 328 325 323 321 315 312 311 310 309 308 308 310 314 316 315 316 318 317 314 307 313 324 329 335 335 335 330 321 289 297
304 286 294 293 292 290 292 299 305 312 317 328 330 325 322 321 317 314 311 310 308 308 308 310 314 317 318 316 317 320 319 320 311 316 326 333 340 340 342 337 324 312 301
292 287 282 289 287 292 300 306 315 324 327 328 325 320 319 318 315 311 310 308 305 308 311 313 316 319 319 319 319 317 316 322 313 313 326 333 341 345 346 346 339 317 316
283 280 283 285 294 303 311 320 326 328 327 323 320 318 319 315 313 312 309 303 306 312 314 316 319 322 323 322 321 317 315 317 320 312 321 331 339 349 349 349 352 344 322
289 283 287 288 298 309 319 327 327 325 323 319 317 318 315 311 310 310 307 303 306 310 313 316 320 326 328 326 324 321 318 319 321 317 314 325 334 345 352 349 352 5 357
289 289 291 300 313 322 324 324 323 320 319 319 317 315 313 309 306 305 303 305 307 311 313 315 319 325 331 334 333 329 325 320 319 321 313 312 327 337 347 353 344 349 10
295 296 306 315 323 323 322 320 319 318 320 316 313 312 310 304 299 300 300 304 307 309 311 311 314 320 327 335 340 342 337 330 322 315 317 309 310 327 336 348 351 332 320
300 310 317 322 322 321 320 319 315 316 318 315 313 311 308 303 296 297 299 301 304 307 309 308 308 313 318 326 335 342 346 346 337 323 311 308 301 303 321 332 345 348 310
314 320 324 325 322 319 316 314 314 314 316 313 310 307 305 302 297 296 298 299 303 307 307 306 305 305 309 314 321 331 340 346 348 341 323 306 295 290 291 309 320 331 344
317 318 321 321 317 315 313 313 312 311 312 311 307 301 301 299 296 296 297 299 302 305 307 307 305 301 302 304 309 317 325 336 342 346 341 323 301 284 282 278 290 295 297
313 315 318 318 314 312 310 310 309 309 308 308 303 294 293 293 292 294 295 297 298 299 301 302 301 301 299 300 303 306 312 321 333 339 344 340 320 296 275 273 266 273 275
314 315 316 313 307 305 304 304 305 305 304 303 300 291 286 288 291 293 295 295 295 296 296 297 298 298 299 296 297 300 302 308 318 332 340 345 338 317 291 270 265 257 258
313 314 312 308 306 304 303 301 300 300 300 300 299 289 283 284 287 291 292 293 294 295 294 291 293 295 296 296 293 294 296 299 304 317 334 341 347 335 314 289 268 260 254
312 310 308 307 306 305 304 301 297 296 297 297 295 287 280 279 282 285 288 290 293 295 295 290 286 288 291 294 293 291 291 292 294 301 317 330 340 347 335 314 287 268 258
308 305 302 300 299 298 299 299 296 293 293 293 293 287 281 276 276 279 282 285 288 293 295 295 288 288 283 285 288 287 286 285 288 291 299 316 325 340 344 339 316 292 272
302 301 300 297 295 293 291 291 291 290 288 289 289 285 281 277 275 276 278 280 282 287 291 294 293 289 289 280 278 280 280 281 282 284 287 298 307 316 332 338 342 321 302
Height
5717 5710 5703 5696 5689 5683 5676 5668 5659 5650 5642 5633 5624 5615 5605 5594 5583 5570 5557 5542 5524 5507 5492 5480 5471 5463 5457 5453 5449 5444 5439 5435 5429 5432 5423 5416 5409 5404 5400 5397 5395 5393 5393
5705 5698 5692 5684 5678 5671 5662 5654 5645 5637 5628 5619 5610 5600 5591 5578 5565 5553 5537 5522 5505 5490 5477 5467 5459 5452 5448 5443 5439 5434 5429 5424 5417 5414 5412 5404 5398 5392 5388 5384 5381 5378 5377
5693 5686 5678 5672 5665 5657 5648 5639 5631 5623 5614 5605 5595 5584 5574 5563 5549 5533 5519 5502 5486 5473 5463 5454 5448 5443 5439 5434 5429 5424 5418 5413 5407 5401 5398 5391 5386 5381 5376 5371 5366 5363 5360
5681 5673 5666 5659 5652 5643 5635 5625 5617 5609 5599 5590 5579 5568 5556 5544 5530 5516 5499 5483 5470 5459 5451 5445 5439 5434 5430 5425 5419 5413 5407 5401 5395 5389 5384 5379 5374 5369 5362 5356 5351 5347 5344
5668 5661 5654 5647 5639 5630 5621 5612 5603 5595 5585 5575 5564 5551 5538 5524 5510 5496 5480 5467 5456 5448 5440 5434 5429 5425 5420 5415 5408 5402 5396 5390 5384 5377 5372 5368 5363 5356 5349 5341 5336 5332 5329
5656 5649 5642 5633 5625 5616 5607 5598 5589 5580 5570 5560 5549 5536 5523 5508 5490 5477 5465 5453 5444 5437 5431 5425 5420 5415 5411 5406 5400 5394 5386 5380 5373 5367 5363 5359 5353 5345 5337 5329 5323 5317 5315
5644 5636 5628 5620 5613 5604 5594 5584 5574 5564 5554 5543 5531 5520 5508 5495 5475 5463 5452 5442 5434 5428 5422 5417 5412 5406 5402 5396 5390 5384 5377 5370 5364 5359 5355 5350 5343 5335 5326 5318 5310 5305 5303
5631 5624 5616 5608 5599 5589 5579 5569 5559 5549 5538 5526 5515 5505 5490 5482 5462 5450 5441 5433 5426 5419 5414 5410 5405 5399 5393 5387 5382 5375 5368 5362 5356 5352 5347 5341 5333 5325 5316 5308 5301 5296 5293
5618 5610 5602 5593 5584 5574 5563 5553 5543 5533 5521 5510 5500 5486 5473 5465 5448 5438 5431 5425 5419 5412 5407 5402 5398 5391 5385 5380 5373 5367 5361 5355 5350 5346 5341 5334 5326 5317 5308 5301 5295 5290 5287
5604 5596 5588 5580 5570 5559 5548 5537 5527 5516 5506 5496 5484 5472 5459 5445 5438 5428 5422 5417 5411 5406 5400 5395 5391 5385 5378 5371 5366 5360 5354 5349 5345 5341 5335 5328 5320 5312 5303 5296 5291 5288 5286
5587 5579 5572 5563 5552 5541 5531 5521 5512 5502 5492 5482 5471 5458 5446 5435 5427 5420 5414 5409 5404 5399 5394 5389 5383 5377 5371 5364 5359 5354 5348 5344 5340 5335 5330 5323 5315 5308 5300 5294 5289 5287 5285
5576 5568 5558 5545 5535 5525 5515 5508 5498 5487 5478 5466 5456 5444 5434 5426 5418 5411 5407 5402 5397 5393 5388 5383 5377 5371 5365 5359 5353 5348 5343 5338 5334 5330 5326 5320 5313 5305 5299 5293 5289 5286 5284
5558 5549 5538 5528 5518 5508 5501 5491 5481 5471 5462 5451 5442 5433 5423 5415 5410 5405 5399 5395 5391 5387 5382 5377 5372 5366 5360 5354 5349 5344 5339 5334 5330 5326 5322 5317 5311 5304 5298 5293 5289 5286 5284
5542 5532 5523 5513 5504 5496 5486 5476 5466 5457 5448 5439 5431 5422 5412 5405 5400 5397 5393 5389 5385 5381 5377 5372 5367 5361 5355 5349 5344 5340 5335 5330 5326 5322 5319 5315 5310 5304 5298 5294 5289 5286 5284
5528 5517 5508 5500 5490 5481 5472 5462 5454 5444 5437 5428 5420 5412 5405 5398 5394 5389 5386 5383 5380 5376 5371 5367 5362 5357 5351 5345 5340 5335 5331 5326 5322 5318 5316 5312 5308 5304 5299 5294 5291 5288 5285
5512 5503 5494 5486 5476 5466 5459 5451 5443 5435 5426 5417 5409 5402 5396 5391 5387 5384 5380 5377 5373 5369 5366 5361 5357 5353 5348 5342 5336 5331 5327 5322 5319 5315 5312 5310 5307 5303 5299 5295 5292 5290 5287
5501 5491 5481 5472 5462 5454 5445 5436 5431 5424 5417 5410 5401 5394 5388 5384 5380 5377 5374 5371 5367 5364 5360 5356 5352 5348 5344 5339 5334 5329 5323 5319 5315 5312 5309 5306 5304 5302 5299 5296 5293 5290 5289
5486 5476 5468 5459 5450 5441 5431 5425 5418 5412 5405 5398 5392 5386 5380 5376 5373 5370 5368 5364 5361 5357 5354 5351 5347 5344 5340 5336 5331 5327 5322 5317 5312 5308 5305 5303 5301 5300 5298 5296 5294 5291 5290
5471 5462 5452 5444 5436 5428 5421 5414 5407 5400 5394 5387 5381 5377 5373 5369 5366 5363 5361 5357 5354 5351 5348 5345 5342 5339 5336 5332 5328 5324 5320 5315 5310 5305 5301 5299 5298 5296 5295 5294 5293 5292 5290
5456 5449 5442 5433 5424 5415 5408 5401 5395 5389 5383 5377 5372 5368 5364 5363 5359 5356 5354 5351 5347 5344 5342 5339 5336 5333 5330 5327 5324 5321 5318 5314 5309 5304 5299 5295 5293 5292 5291 5292 5291 5291 5291
5442 5434 5425 5418 5409 5402 5395 5388 5382 5377 5372 5367 5362 5358 5356 5354 5352 5349 5346 5343 5340 5337 5334 5332 5329 5326 5324 5321 5319 5317 5314 5310 5307 5302 5297 5292 5289 5287 5287 5287 5288 5288 5289
5427 5418 5409 5401 5393 5386 5381 5376 5370 5365 5360 5355 5351 5348 5346 5344 5342 5340 5337 5335 5332 5330 5327 5324 5322 5320 5317 5315 5313 5311 5309 5307 5304 5300 5296 5291 5286 5283 5282 5282 5283 5284 5285
5409 5400 5392 5384 5377 5371 5365 5360 5356 5352 5348 5344 5340 5337 5335 5334 5333 5331 5328 5326 5323 5321 5318 5315 5314 5311 5310 5308 5306 5304 5303 5301 5300 5297 5294 5290 5285 5281 5278 5277 5277 5278 5280
5390 5381 5374 5367 5362 5356 5351 5347 5343 5339 5336 5332 5329 5326 5324 5324 5322 5321 5319 5317 5314 5312 5309 5307 5305 5303 5301 5300 5299 5297 5296 5295 5294 5293 5291 5288 5284 5280 5276 5273 5272 5272 5273
5370 5363 5356 5350 5345 5341 5337 5333 5329 5326 5323 5320 5317 5315 5313 5312 5311 5310 5309 5307 5305 5303 5301 5298 5296 5295 5293 5292 5292 5290 5290 5288 5288 5287 5286 5284 5282 5278 5275 5271 5269 5267 5267
5349 5341 5335 5330 5327 5323 5320 5318 5315 5312 5310 5307 5305 5303 5301 5301 5300 5299 5298 5297 5295 5294 5292 5290 5288 5286 5284 5283 5283 5283 5282 5281 5281 5280 5280 5279 5277 5275 5273 5270 5267 5264 5263